MSOLO KJKA-KFPY

Flight info

Callsign MSOLO
Flight time 1h 55m
Altitude 7500
Route 301956N0870830W/VPTHR VP226 VP225 301614N0855915W/VPLIP 301352N0852040W/VPRER VP181 300401N0834001W/VPHAA
Aircraft EC45/L-SDFGRY/EB1

Departure

Time 2026-04-13 17:22
Airport Jack Edwards National Airport (KJKA)

Arrival

Time 2026-04-13 19:18
Airport Perry-Foley Airport (KFPY)
Time Latitude Longitude Altitude Speed Heading
2026-04-13 17:07 30.28641 -87.67833 21 ft 0 kts 86°
2026-04-13 17:16 30.28649 -87.67835 27 ft 0 kts 87°
2026-04-13 17:16 30.28649 -87.67836 28 ft 0 kts
2026-04-13 17:17 30.28654 -87.67832 31 ft 3 kts
2026-04-13 17:17 30.28684 -87.67840 29 ft 4 kts
2026-04-13 17:17 30.28708 -87.67838 30 ft 4 kts 11°
2026-04-13 17:17 30.28737 -87.67818 31 ft 5 kts 95°
2026-04-13 17:18 30.28734 -87.67776 34 ft 5 kts 53°
2026-04-13 17:18 30.28764 -87.67756 27 ft 6 kts 349°
2026-04-13 17:18 30.28804 -87.67761 30 ft 5 kts 349°
2026-04-13 17:18 30.28837 -87.67769 29 ft 5 kts 355°
2026-04-13 17:19 30.28871 -87.67775 30 ft 5 kts
2026-04-13 17:19 30.28906 -87.67773 30 ft 5 kts 33°
2026-04-13 17:19 30.28922 -87.67754 33 ft 1 kts 102°
2026-04-13 17:19 30.28920 -87.67748 30 ft 1 kts 97°
2026-04-13 17:20 30.28921 -87.67750 31 ft 0 kts 97°
2026-04-13 17:20 30.28920 -87.67749 31 ft 2 kts 97°
2026-04-13 17:21 30.28907 -87.67695 34 ft 8 kts 154°
2026-04-13 17:21 30.28866 -87.67687 31 ft 7 kts 168°
2026-04-13 17:21 30.28820 -87.67667 35 ft 8 kts 195°
2026-04-13 17:21 30.28737 -87.67643 166 ft 23 kts 198°
2026-04-13 17:22 30.28489 -87.67628 418 ft 45 kts 172°
2026-04-13 17:22 30.28083 -87.67574 571 ft 73 kts 145°
2026-04-13 17:22 30.27941 -87.66984 699 ft 86 kts 92°
2026-04-13 17:22 30.27992 -87.66277 886 ft 90 kts 92°
2026-04-13 17:23 30.28031 -87.65542 1056 ft 94 kts 87°
2026-04-13 17:23 30.28105 -87.64783 1189 ft 96 kts 90°
2026-04-13 17:23 30.28201 -87.64005 1303 ft 99 kts 88°
2026-04-13 17:23 30.28280 -87.63211 1404 ft 100 kts 90°
2026-04-13 17:24 30.28334 -87.62403 1472 ft 101 kts 90°
2026-04-13 17:24 30.28417 -87.61583 1579 ft 105 kts 88°
2026-04-13 17:24 30.28520 -87.60759 1684 ft 99 kts 86°
2026-04-13 17:24 30.28619 -87.60027 1773 ft 91 kts 87°
2026-04-13 17:25 30.28714 -87.59303 1957 ft 91 kts 88°
2026-04-13 17:25 30.28822 -87.58583 2130 ft 92 kts 88°
2026-04-13 17:25 30.28932 -87.57851 2306 ft 92 kts 87°
2026-04-13 17:25 30.29034 -87.57117 2474 ft 93 kts 88°
2026-04-13 17:26 30.29127 -87.56381 2653 ft 92 kts 88°
2026-04-13 17:26 30.29220 -87.55638 2828 ft 94 kts 88°
2026-04-13 17:26 30.29320 -87.54891 3000 ft 95 kts 87°
2026-04-13 17:26 30.29420 -87.54133 3176 ft 95 kts 88°
2026-04-13 17:27 30.29626 -87.52627 3379 ft 95 kts 87°
2026-04-13 17:27 30.29725 -87.51875 3446 ft 94 kts 87°
2026-04-13 17:27 30.29826 -87.51124 3473 ft 94 kts 87°
2026-04-13 17:28 30.29937 -87.50379 3485 ft 94 kts 87°
2026-04-13 17:28 30.30043 -87.49601 3465 ft 108 kts 87°
2026-04-13 17:28 30.30140 -87.48750 3491 ft 105 kts 88°
2026-04-13 17:28 30.30252 -87.47890 3486 ft 112 kts 87°
2026-04-13 17:29 30.30364 -87.46957 3488 ft 122 kts 87°
2026-04-13 17:29 30.30474 -87.45950 3507 ft 126 kts 87°
2026-04-13 17:29 30.30591 -87.44941 3498 ft 129 kts 87°
2026-04-13 17:29 30.30709 -87.43910 3499 ft 130 kts 87°
2026-04-13 17:30 30.30829 -87.42944 3487 ft 122 kts 87°
2026-04-13 17:30 30.30932 -87.42082 3371 ft 25 kts 329°
2026-04-13 17:30 30.30902 -87.42088 2230 ft 3 kts 199°
2026-04-13 17:30 30.30460 -87.42042 1949 ft 89 kts 164°
2026-04-13 17:31 30.30146 -87.41510 2191 ft 83 kts 93°
2026-04-13 17:31 30.30283 -87.40896 2487 ft 78 kts 82°
2026-04-13 17:31 30.30398 -87.40303 2690 ft 73 kts 87°
2026-04-13 17:31 30.30492 -87.39732 2860 ft 73 kts 86°
2026-04-13 17:32 30.30541 -87.39136 3033 ft 76 kts 94°
2026-04-13 17:32 30.30576 -87.38507 3203 ft 80 kts 92°
2026-04-13 17:32 30.30646 -87.37859 3240 ft 82 kts 88°
2026-04-13 17:32 30.30773 -87.37210 3301 ft 85 kts 82°
2026-04-13 17:33 30.30858 -87.36533 3416 ft 86 kts 90°
2026-04-13 17:33 30.30930 -87.35802 3451 ft 101 kts 89°
2026-04-13 17:33 30.31011 -87.34918 3473 ft 119 kts 88°
2026-04-13 17:33 30.31106 -87.33937 3488 ft 126 kts 88°
2026-04-13 17:34 30.31322 -87.31875 3500 ft 129 kts 87°
2026-04-13 17:34 30.31434 -87.30851 3500 ft 128 kts 86°
2026-04-13 17:34 30.31546 -87.29832 3500 ft 127 kts 87°
2026-04-13 17:35 30.31658 -87.28821 3501 ft 126 kts 86°
2026-04-13 17:35 30.31768 -87.27818 3500 ft 126 kts 87°
2026-04-13 17:35 30.31877 -87.26815 3500 ft 125 kts 86°
2026-04-13 17:35 30.31987 -87.25817 3500 ft 124 kts 88°
2026-04-13 17:36 30.32095 -87.24827 3497 ft 124 kts 88°
2026-04-13 17:36 30.32202 -87.23839 3496 ft 125 kts 87°
2026-04-13 17:36 30.32311 -87.22834 3496 ft 126 kts 87°
2026-04-13 17:36 30.32420 -87.21825 3503 ft 126 kts 87°
2026-04-13 17:37 30.32530 -87.20825 3502 ft 125 kts 86°
2026-04-13 17:37 30.32640 -87.19835 3529 ft 117 kts 87°
2026-04-13 17:37 30.32738 -87.19054 3756 ft 89 kts 90°
2026-04-13 17:37 30.32814 -87.18292 3922 ft 97 kts 88°
2026-04-13 17:38 30.32891 -87.17509 4112 ft 98 kts 88°
2026-04-13 17:38 30.32969 -87.16727 4304 ft 99 kts 89°
2026-04-13 17:38 30.33051 -87.15940 4505 ft 97 kts 89°
2026-04-13 17:38 30.33132 -87.15170 4694 ft 95 kts 89°
2026-04-13 17:39 30.33211 -87.14413 4894 ft 94 kts 89°
2026-04-13 17:39 30.33290 -87.13667 5077 ft 94 kts 89°
2026-04-13 17:39 30.33368 -87.12923 5256 ft 93 kts 89°
2026-04-13 17:39 30.33444 -87.12171 5384 ft 94 kts 89°
2026-04-13 17:40 30.33523 -87.11424 5450 ft 93 kts 89°
2026-04-13 17:40 30.33605 -87.10659 5468 ft 101 kts 88°
2026-04-13 17:40 30.33693 -87.09831 5480 ft 107 kts 88°
2026-04-13 17:40 30.33786 -87.08949 5486 ft 114 kts 88°
2026-04-13 17:41 30.33884 -87.08014 5490 ft 120 kts 88°
2026-04-13 17:41 30.34029 -87.07039 5491 ft 127 kts 80°
2026-04-13 17:41 30.34286 -87.06045 5494 ft 131 kts 77°
2026-04-13 17:41 30.34567 -87.05054 5501 ft 129 kts 77°
2026-04-13 17:42 30.34848 -87.04072 5513 ft 128 kts 77°
2026-04-13 17:42 30.35129 -87.03091 5512 ft 130 kts 76°
2026-04-13 17:42 30.35418 -87.02090 5513 ft 131 kts 76°
2026-04-13 17:42 30.35704 -87.01099 5511 ft 129 kts 76°
2026-04-13 17:43 30.35987 -87.00122 5522 ft 127 kts 75°
2026-04-13 17:43 30.36272 -86.99159 5510 ft 128 kts 77°
2026-04-13 17:43 30.36556 -86.98179 5508 ft 129 kts 77°
2026-04-13 17:43 30.36845 -86.97192 5509 ft 130 kts 77°
2026-04-13 17:44 30.37137 -86.96204 5527 ft 128 kts 75°
2026-04-13 17:44 30.37432 -86.95246 5532 ft 125 kts 76°
2026-04-13 17:44 30.37731 -86.94289 5512 ft 127 kts 78°
2026-04-13 17:44 30.38027 -86.93324 5496 ft 128 kts 77°
2026-04-13 17:45 30.38316 -86.92339 5502 ft 128 kts 78°
2026-04-13 17:45 30.38598 -86.91367 5510 ft 126 kts 77°
2026-04-13 17:45 30.38878 -86.90394 5512 ft 128 kts 77°
2026-04-13 17:45 30.39159 -86.89419 5513 ft 127 kts 78°
2026-04-13 17:46 30.39439 -86.88451 5515 ft 127 kts 77°
2026-04-13 17:46 30.39720 -86.87477 5516 ft 127 kts 77°
2026-04-13 17:46 30.39947 -86.86497 5513 ft 124 kts 90°
2026-04-13 17:46 30.39978 -86.85488 5515 ft 127 kts 94°
2026-04-13 17:47 30.39972 -86.84493 5491 ft 124 kts 95°
2026-04-13 17:47 30.39963 -86.83484 5492 ft 123 kts 97°
2026-04-13 17:47 30.39956 -86.82490 5491 ft 124 kts 95°
2026-04-13 17:47 30.39950 -86.81503 5490 ft 125 kts 95°
2026-04-13 17:48 30.39946 -86.80504 5488 ft 125 kts 96°
2026-04-13 17:48 30.39943 -86.79501 5490 ft 125 kts 95°
2026-04-13 17:48 30.39941 -86.78503 5491 ft 123 kts 94°
2026-04-13 17:48 30.39939 -86.77511 5492 ft 123 kts 96°
2026-04-13 17:49 30.39939 -86.76525 5491 ft 122 kts 96°
2026-04-13 17:49 30.39938 -86.75542 5498 ft 121 kts 94°
2026-04-13 17:49 30.39940 -86.74562 5478 ft 125 kts 95°
2026-04-13 17:49 30.39937 -86.73556 5496 ft 125 kts 95°
2026-04-13 17:50 30.39936 -86.72542 5499 ft 124 kts 94°
2026-04-13 17:50 30.39938 -86.71541 5496 ft 124 kts 95°
2026-04-13 17:50 30.39940 -86.70547 5491 ft 123 kts 97°
2026-04-13 17:50 30.39938 -86.69546 5490 ft 124 kts 96°
2026-04-13 17:51 30.39938 -86.68564 5487 ft 122 kts 95°
2026-04-13 17:51 30.39937 -86.67577 5492 ft 123 kts 96°
2026-04-13 17:51 30.39938 -86.66585 5490 ft 124 kts 95°
2026-04-13 17:51 30.39939 -86.65584 5498 ft 123 kts 96°
2026-04-13 17:52 30.39940 -86.64584 5490 ft 124 kts 96°
2026-04-13 17:52 30.39940 -86.63584 5492 ft 123 kts 95°
2026-04-13 17:52 30.39940 -86.62590 5491 ft 125 kts 94°
2026-04-13 17:52 30.39942 -86.61584 5493 ft 125 kts 96°
2026-04-13 17:53 30.39942 -86.60914 5501 ft 124 kts 96°
2026-04-13 17:53 30.39944 -86.59589 5501 ft 121 kts 96°
2026-04-13 17:53 30.39945 -86.58608 5490 ft 123 kts 96°
2026-04-13 17:53 30.39942 -86.57613 5513 ft 123 kts 96°
2026-04-13 17:54 30.39941 -86.56628 5506 ft 122 kts 95°
2026-04-13 17:54 30.39941 -86.55658 5508 ft 119 kts 95°
2026-04-13 17:54 30.39939 -86.54691 5506 ft 121 kts 95°
2026-04-13 17:54 30.39937 -86.53723 5510 ft 119 kts 95°
2026-04-13 17:55 30.39937 -86.52772 5508 ft 118 kts 95°
2026-04-13 17:55 30.39934 -86.51813 5513 ft 119 kts 95°
2026-04-13 17:55 30.39934 -86.50856 5511 ft 119 kts 94°
2026-04-13 17:55 30.39936 -86.49894 5514 ft 119 kts 95°
2026-04-13 17:56 30.39939 -86.48937 5500 ft 121 kts 95°
2026-04-13 17:56 30.39940 -86.47975 5512 ft 117 kts 95°
2026-04-13 17:56 30.39938 -86.47021 5505 ft 120 kts 95°
2026-04-13 17:56 30.39935 -86.46382 5507 ft 119 kts 95°
2026-04-13 17:57 30.39934 -86.45113 5511 ft 119 kts 94°
2026-04-13 17:57 30.39932 -86.44477 5511 ft 120 kts 95°
2026-04-13 17:57 30.39930 -86.43513 5510 ft 119 kts 94°
2026-04-13 17:57 30.39922 -86.42549 5514 ft 118 kts 98°
2026-04-13 17:58 30.39685 -86.41356 5509 ft 116 kts 111°
2026-04-13 17:58 30.39439 -86.40468 5508 ft 117 kts 111°
2026-04-13 17:58 30.39186 -86.39578 5509 ft 115 kts 112°
2026-04-13 17:58 30.38926 -86.38684 5511 ft 117 kts 111°
2026-04-13 17:59 30.38752 -86.38084 5505 ft 116 kts 112°
2026-04-13 17:59 30.38490 -86.37190 5515 ft 117 kts 112°
2026-04-13 17:59 30.38233 -86.36305 5508 ft 116 kts 112°
2026-04-13 17:59 30.37970 -86.35411 5512 ft 116 kts 112°
2026-04-13 18:00 30.37709 -86.34523 5506 ft 116 kts 112°
2026-04-13 18:00 30.37452 -86.33647 5508 ft 115 kts 112°
2026-04-13 18:00 30.37188 -86.32760 5508 ft 118 kts 112°
2026-04-13 18:00 30.36929 -86.31876 5510 ft 114 kts 112°
2026-04-13 18:01 30.36666 -86.30996 5491 ft 118 kts 112°
2026-04-13 18:01 30.36395 -86.30095 5496 ft 119 kts 112°
2026-04-13 18:01 30.36131 -86.29203 5495 ft 117 kts 113°
2026-04-13 18:01 30.35867 -86.28314 5492 ft 117 kts 112°
2026-04-13 18:02 30.35601 -86.27422 5499 ft 115 kts 112°
2026-04-13 18:02 30.35345 -86.26557 5494 ft 116 kts 113°
2026-04-13 18:02 30.35082 -86.25677 5498 ft 115 kts 112°
2026-04-13 18:02 30.34818 -86.24794 5503 ft 117 kts 113°
2026-04-13 18:03 30.34557 -86.23914 5501 ft 116 kts 112°
2026-04-13 18:03 30.34290 -86.23023 5500 ft 118 kts 112°
2026-04-13 18:03 30.34021 -86.22122 5499 ft 118 kts 112°
2026-04-13 18:03 30.33756 -86.21228 5498 ft 117 kts 113°
2026-04-13 18:04 30.33490 -86.20337 5495 ft 118 kts 112°
2026-04-13 18:04 30.33224 -86.19445 5497 ft 117 kts 113°
2026-04-13 18:04 30.32961 -86.18559 5501 ft 116 kts 113°
2026-04-13 18:04 30.32698 -86.17675 5504 ft 115 kts 111°
2026-04-13 18:05 30.32438 -86.16797 5503 ft 114 kts 111°
2026-04-13 18:05 30.32184 -86.15934 5493 ft 115 kts 112°
2026-04-13 18:05 30.31920 -86.15055 5500 ft 115 kts 112°
2026-04-13 18:05 30.31661 -86.14186 5495 ft 115 kts 112°
2026-04-13 18:06 30.31400 -86.13312 5500 ft 113 kts 111°
2026-04-13 18:06 30.31138 -86.12436 5496 ft 116 kts 112°
2026-04-13 18:06 30.30879 -86.11565 5496 ft 114 kts 112°
2026-04-13 18:06 30.30622 -86.10701 5495 ft 113 kts 112°
2026-04-13 18:07 30.30361 -86.09832 5496 ft 116 kts 111°
2026-04-13 18:07 30.30096 -86.08950 5500 ft 115 kts 112°
2026-04-13 18:07 30.29836 -86.08076 5491 ft 116 kts 111°
2026-04-13 18:07 30.29568 -86.07185 5495 ft 117 kts 111°
2026-04-13 18:08 30.29306 -86.06303 5491 ft 115 kts 111°
2026-04-13 18:08 30.29063 -86.05474 5591 ft 100 kts 113°
2026-04-13 18:08 30.28853 -86.04767 5844 ft 86 kts 114°
2026-04-13 18:08 30.28665 -86.04146 6078 ft 82 kts 114°
2026-04-13 18:09 30.28463 -86.03502 6329 ft 85 kts 114°
2026-04-13 18:09 30.28261 -86.02851 6574 ft 89 kts 114°
2026-04-13 18:09 30.28050 -86.02170 6829 ft 88 kts 114°
2026-04-13 18:09 30.27846 -86.01498 7055 ft 91 kts 113°
2026-04-13 18:10 30.27635 -86.00807 7289 ft 92 kts 112°
2026-04-13 18:10 30.27426 -86.00103 7407 ft 94 kts 112°
2026-04-13 18:10 30.27200 -85.99346 7468 ft 103 kts 112°
2026-04-13 18:10 30.27051 -85.98493 7477 ft 114 kts 100°
2026-04-13 18:11 30.26982 -85.97567 7497 ft 114 kts 100°
2026-04-13 18:11 30.26923 -85.96627 7497 ft 119 kts 99°
2026-04-13 18:11 30.26864 -85.95666 7506 ft 121 kts 98°
2026-04-13 18:11 30.26808 -85.94698 7501 ft 122 kts 97°
2026-04-13 18:12 30.26752 -85.93724 7502 ft 121 kts 98°
2026-04-13 18:12 30.26695 -85.92746 7509 ft 121 kts 98°
2026-04-13 18:12 30.26639 -85.91768 7507 ft 121 kts 98°
2026-04-13 18:12 30.26584 -85.90803 7502 ft 120 kts 99°
2026-04-13 18:13 30.26525 -85.89822 7505 ft 123 kts 98°
2026-04-13 18:13 30.26468 -85.88848 7502 ft 121 kts 97°
2026-04-13 18:13 30.26408 -85.87866 7506 ft 124 kts 97°
2026-04-13 18:13 30.26351 -85.86871 7503 ft 121 kts 98°
2026-04-13 18:14 30.26293 -85.85907 7507 ft 121 kts 98°
2026-04-13 18:14 30.26237 -85.84938 7491 ft 122 kts 99°
2026-04-13 18:14 30.26176 -85.83965 7494 ft 122 kts 98°
2026-04-13 18:14 30.26115 -85.82989 7497 ft 122 kts 98°
2026-04-13 18:15 30.26052 -85.82003 7498 ft 124 kts 97°
2026-04-13 18:15 30.25992 -85.81013 7504 ft 121 kts 99°
2026-04-13 18:15 30.25935 -85.80047 7496 ft 122 kts 98°
2026-04-13 18:15 30.25875 -85.79074 7504 ft 119 kts 99°
2026-04-13 18:16 30.25817 -85.78113 7499 ft 121 kts 97°
2026-04-13 18:16 30.25757 -85.77136 7505 ft 121 kts 99°
2026-04-13 18:16 30.25698 -85.76163 7501 ft 122 kts 98°
2026-04-13 18:16 30.25639 -85.75188 7499 ft 122 kts 99°
2026-04-13 18:17 30.25581 -85.74217 7498 ft 122 kts 97°
2026-04-13 18:17 30.25521 -85.73236 7503 ft 121 kts 99°
2026-04-13 18:17 30.25465 -85.72280 7503 ft 119 kts 98°
2026-04-13 18:17 30.25407 -85.71311 7506 ft 122 kts 99°
2026-04-13 18:18 30.25351 -85.70344 7496 ft 122 kts 98°
2026-04-13 18:18 30.25288 -85.69355 7508 ft 122 kts 98°
2026-04-13 18:18 30.25230 -85.68384 7506 ft 121 kts 98°
2026-04-13 18:18 30.25169 -85.67409 7509 ft 121 kts 98°
2026-04-13 18:19 30.25111 -85.66448 7499 ft 121 kts 99°
2026-04-13 18:19 30.25051 -85.65477 7508 ft 122 kts 97°
2026-04-13 18:19 30.24992 -85.64499 7506 ft 123 kts 98°
2026-04-13 18:19 30.24930 -85.63508 7506 ft 124 kts 97°
2026-04-13 18:20 30.24871 -85.62520 7519 ft 120 kts 98°
2026-04-13 18:20 30.24812 -85.61548 7514 ft 122 kts 97°
2026-04-13 18:20 30.24754 -85.60582 7510 ft 119 kts 99°
2026-04-13 18:20 30.24690 -85.59615 7511 ft 121 kts 98°
2026-04-13 18:21 30.24625 -85.58636 7513 ft 121 kts 99°
2026-04-13 18:21 30.24563 -85.57657 7506 ft 123 kts 99°
2026-04-13 18:21 30.24502 -85.56672 7503 ft 124 kts 98°
2026-04-13 18:21 30.24444 -85.55695 7503 ft 122 kts 97°
2026-04-13 18:22 30.24384 -85.54715 7510 ft 121 kts 99°
2026-04-13 18:22 30.24327 -85.53756 7503 ft 120 kts 98°
2026-04-13 18:22 30.24263 -85.52780 7503 ft 123 kts 99°
2026-04-13 18:22 30.24202 -85.51808 7505 ft 121 kts 97°
2026-04-13 18:23 30.24141 -85.50827 7511 ft 122 kts 97°
2026-04-13 18:23 30.24081 -85.49863 7510 ft 121 kts 97°
2026-04-13 18:23 30.24019 -85.48887 7519 ft 120 kts 98°
2026-04-13 18:23 30.23963 -85.47930 7504 ft 119 kts 99°
2026-04-13 18:24 30.23900 -85.46961 7505 ft 123 kts 98°
2026-04-13 18:24 30.23840 -85.45989 7505 ft 120 kts 98°
2026-04-13 18:24 30.23776 -85.45010 7504 ft 124 kts 97°
2026-04-13 18:24 30.23713 -85.44021 7518 ft 121 kts 99°
2026-04-13 18:25 30.23654 -85.43051 7509 ft 123 kts 98°
2026-04-13 18:25 30.23594 -85.42082 7480 ft 120 kts 98°
2026-04-13 18:25 30.23531 -85.41114 7488 ft 121 kts 97°
2026-04-13 18:25 30.23468 -85.40140 7488 ft 120 kts 98°
2026-04-13 18:26 30.23405 -85.39163 7491 ft 123 kts 97°
2026-04-13 18:26 30.23343 -85.38182 7491 ft 122 kts 98°
2026-04-13 18:26 30.23282 -85.37204 7490 ft 122 kts 97°
2026-04-13 18:26 30.23220 -85.36224 7495 ft 121 kts 98°
2026-04-13 18:27 30.23160 -85.35265 7487 ft 121 kts 98°
2026-04-13 18:27 30.23074 -85.34284 7492 ft 123 kts 100°
2026-04-13 18:27 30.22981 -85.33315 7485 ft 122 kts 99°
2026-04-13 18:27 30.22879 -85.32326 7493 ft 123 kts 99°
2026-04-13 18:28 30.22783 -85.31354 7490 ft 121 kts 100°
2026-04-13 18:28 30.22684 -85.30382 7487 ft 122 kts 100°
2026-04-13 18:28 30.22586 -85.29418 7483 ft 122 kts 100°
2026-04-13 18:28 30.22488 -85.28452 7483 ft 121 kts 99°
2026-04-13 18:29 30.22388 -85.27477 7491 ft 120 kts 99°
2026-04-13 18:29 30.22290 -85.26512 7483 ft 123 kts 99°
2026-04-13 18:29 30.22187 -85.25526 7487 ft 123 kts 100°
2026-04-13 18:29 30.22088 -85.24558 7485 ft 121 kts 99°
2026-04-13 18:30 30.21988 -85.23585 7490 ft 121 kts 101°
2026-04-13 18:30 30.21892 -85.22643 7481 ft 121 kts 100°
2026-04-13 18:30 30.21789 -85.21668 7487 ft 123 kts 99°
2026-04-13 18:30 30.21689 -85.20685 7484 ft 121 kts 100°
2026-04-13 18:31 30.21588 -85.19723 7491 ft 123 kts 99°
2026-04-13 18:31 30.21488 -85.18746 7495 ft 120 kts 100°
2026-04-13 18:31 30.21390 -85.17787 7484 ft 122 kts 101°
2026-04-13 18:31 30.21286 -85.16800 7493 ft 123 kts 100°
2026-04-13 18:32 30.21187 -85.15831 7483 ft 122 kts 100°
2026-04-13 18:32 30.21082 -85.14839 7487 ft 125 kts 100°
2026-04-13 18:32 30.20979 -85.13847 7483 ft 125 kts 100°
2026-04-13 18:32 30.20873 -85.12845 7491 ft 125 kts 99°
2026-04-13 18:33 30.20773 -85.11857 7495 ft 123 kts 99°
2026-04-13 18:33 30.20669 -85.10867 7495 ft 124 kts 99°
2026-04-13 18:33 30.20565 -85.09877 7493 ft 124 kts 100°
2026-04-13 18:34 30.20359 -85.07895 7497 ft 123 kts 100°
2026-04-13 18:34 30.20255 -85.06901 7492 ft 127 kts 99°
2026-04-13 18:34 30.20151 -85.05896 7500 ft 124 kts 100°
2026-04-13 18:34 30.20051 -85.04914 7489 ft 124 kts 99°
2026-04-13 18:35 30.19947 -85.03925 7495 ft 122 kts 100°
2026-04-13 18:35 30.19845 -85.02944 7492 ft 124 kts 100°
2026-04-13 18:35 30.19741 -85.01955 7491 ft 125 kts 100°
2026-04-13 18:35 30.19635 -85.00961 7492 ft 126 kts 100°
2026-04-13 18:36 30.19531 -84.99964 7491 ft 126 kts 99°
2026-04-13 18:36 30.19425 -84.98962 7500 ft 123 kts 99°
2026-04-13 18:36 30.19322 -84.97974 7494 ft 124 kts 100°
2026-04-13 18:36 30.19219 -84.96994 7501 ft 121 kts 101°
2026-04-13 18:37 30.19152 -84.96350 7496 ft 123 kts 99°
2026-04-13 18:37 30.19012 -84.95029 7502 ft 123 kts 100°
2026-04-13 18:37 30.18908 -84.94048 7499 ft 127 kts 99°
2026-04-13 18:37 30.18804 -84.93050 7503 ft 123 kts 99°
2026-04-13 18:38 30.18704 -84.92073 7497 ft 123 kts 101°
2026-04-13 18:38 30.18598 -84.91082 7510 ft 123 kts 100°
2026-04-13 18:38 30.18497 -84.90110 7503 ft 121 kts 101°
2026-04-13 18:38 30.18391 -84.89128 7502 ft 125 kts 100°
2026-04-13 18:39 30.18285 -84.88137 7503 ft 123 kts 99°
2026-04-13 18:39 30.18180 -84.87139 7503 ft 126 kts 99°
2026-04-13 18:39 30.18074 -84.86143 7506 ft 123 kts 101°
2026-04-13 18:39 30.17968 -84.85158 7505 ft 126 kts 99°
2026-04-13 18:40 30.17867 -84.84174 7507 ft 121 kts 101°
2026-04-13 18:40 30.17764 -84.83197 7504 ft 123 kts 99°
2026-04-13 18:40 30.17657 -84.82208 7507 ft 124 kts 100°
2026-04-13 18:40 30.17552 -84.81220 7511 ft 125 kts 100°
2026-04-13 18:41 30.17444 -84.80223 7508 ft 126 kts 99°
2026-04-13 18:41 30.17340 -84.79234 7511 ft 122 kts 101°
2026-04-13 18:41 30.17233 -84.78244 7511 ft 125 kts 100°
2026-04-13 18:41 30.17129 -84.77259 7515 ft 122 kts 101°
2026-04-13 18:42 30.17023 -84.76277 7512 ft 125 kts 100°
2026-04-13 18:42 30.16915 -84.75282 7517 ft 124 kts 99°
2026-04-13 18:42 30.16808 -84.74281 7514 ft 126 kts 100°
2026-04-13 18:42 30.16701 -84.73282 7511 ft 125 kts 100°
2026-04-13 18:43 30.16595 -84.72290 7508 ft 126 kts 99°
2026-04-13 18:43 30.16489 -84.71299 7510 ft 123 kts 101°
2026-04-13 18:43 30.16385 -84.70322 7514 ft 122 kts 100°
2026-04-13 18:43 30.16276 -84.69328 7515 ft 126 kts 100°
2026-04-13 18:44 30.16170 -84.68335 7510 ft 125 kts 99°
2026-04-13 18:44 30.16060 -84.67330 7512 ft 127 kts 99°
2026-04-13 18:44 30.15955 -84.66333 7518 ft 124 kts 100°
2026-04-13 18:44 30.15848 -84.65334 7518 ft 126 kts 100°
2026-04-13 18:45 30.15744 -84.64346 7514 ft 124 kts 100°
2026-04-13 18:45 30.15672 -84.63688 7516 ft 125 kts 100°
2026-04-13 18:45 30.15563 -84.62687 7515 ft 126 kts 99°
2026-04-13 18:45 30.15455 -84.61687 7515 ft 126 kts 99°
2026-04-13 18:46 30.15346 -84.60677 7517 ft 127 kts 99°
2026-04-13 18:46 30.15239 -84.59674 7520 ft 124 kts 100°
2026-04-13 18:46 30.15097 -84.58350 7521 ft 124 kts 100°
2026-04-13 18:46 30.14994 -84.57371 7513 ft 123 kts 100°
2026-04-13 18:47 30.14920 -84.56700 7509 ft 126 kts 99°
2026-04-13 18:47 30.14811 -84.55702 7519 ft 123 kts 99°
2026-04-13 18:47 30.14702 -84.54701 7516 ft 127 kts 99°
2026-04-13 18:47 30.14595 -84.53702 7511 ft 125 kts 100°
2026-04-13 18:48 30.14486 -84.52707 7515 ft 126 kts 99°
2026-04-13 18:48 30.14378 -84.51709 7520 ft 124 kts 100°
2026-04-13 18:48 30.14271 -84.50723 7513 ft 124 kts 100°
2026-04-13 18:48 30.14159 -84.49718 7518 ft 127 kts 100°
2026-04-13 18:49 30.14052 -84.48733 7511 ft 125 kts 99°
2026-04-13 18:49 30.13939 -84.47719 7515 ft 128 kts 99°
2026-04-13 18:49 30.13830 -84.46701 7517 ft 124 kts 99°
2026-04-13 18:49 30.13723 -84.45717 7513 ft 127 kts 100°
2026-04-13 18:50 30.13616 -84.44722 7516 ft 124 kts 100°
2026-04-13 18:50 30.13507 -84.43728 7517 ft 125 kts 99°
2026-04-13 18:50 30.13397 -84.42727 7520 ft 125 kts 100°
2026-04-13 18:50 30.13288 -84.41728 7515 ft 126 kts 99°
2026-04-13 18:51 30.13177 -84.40718 7515 ft 127 kts 100°
2026-04-13 18:51 30.13071 -84.39727 7512 ft 124 kts 99°
2026-04-13 18:51 30.12960 -84.38728 7518 ft 125 kts 100°
2026-04-13 18:51 30.12855 -84.37747 7514 ft 123 kts 99°
2026-04-13 18:52 30.12743 -84.36749 7518 ft 126 kts 99°
2026-04-13 18:52 30.12636 -84.35754 7509 ft 125 kts 99°
2026-04-13 18:52 30.12522 -84.34751 7512 ft 127 kts 100°
2026-04-13 18:52 30.12412 -84.33748 7516 ft 125 kts 99°
2026-04-13 18:53 30.12303 -84.32755 7509 ft 126 kts 101°
2026-04-13 18:53 30.12192 -84.31757 7515 ft 124 kts 100°
2026-04-13 18:53 30.12084 -84.30773 7510 ft 125 kts 99°
2026-04-13 18:53 30.11971 -84.29768 7517 ft 126 kts 100°
2026-04-13 18:54 30.11861 -84.28771 7509 ft 126 kts 99°
2026-04-13 18:54 30.11750 -84.27766 7515 ft 125 kts 100°
2026-04-13 18:54 30.11644 -84.26783 7513 ft 122 kts 100°
2026-04-13 18:54 30.11534 -84.25792 7517 ft 124 kts 101°
2026-04-13 18:55 30.11428 -84.24816 7507 ft 124 kts 101°
2026-04-13 18:55 30.11316 -84.23829 7509 ft 125 kts 100°
2026-04-13 18:55 30.11206 -84.22836 7516 ft 123 kts 100°
2026-04-13 18:55 30.11093 -84.21838 7513 ft 127 kts 99°
2026-04-13 18:56 30.10982 -84.20842 7512 ft 124 kts 100°
2026-04-13 18:56 30.10876 -84.19861 7500 ft 125 kts 100°
2026-04-13 18:56 30.10765 -84.18867 7510 ft 123 kts 101°
2026-04-13 18:56 30.10659 -84.17892 7499 ft 124 kts 101°
2026-04-13 18:57 30.10545 -84.16899 7503 ft 126 kts 101°
2026-04-13 18:57 30.10435 -84.15909 7500 ft 125 kts 100°
2026-04-13 18:57 30.10326 -84.14911 7506 ft 125 kts 99°
2026-04-13 18:57 30.10241 -84.13908 7511 ft 124 kts 98°
2026-04-13 18:58 30.10165 -84.12913 7504 ft 126 kts 98°
2026-04-13 18:58 30.10090 -84.11920 7507 ft 122 kts 98°
2026-04-13 18:58 30.10016 -84.10936 7500 ft 125 kts 97°
2026-04-13 18:58 30.09939 -84.09930 7509 ft 124 kts 98°
2026-04-13 18:59 30.09865 -84.08929 7502 ft 127 kts 97°
2026-04-13 18:59 30.09791 -84.07918 7509 ft 124 kts 98°
2026-04-13 18:59 30.09719 -84.06929 7499 ft 125 kts 97°
2026-04-13 18:59 30.09646 -84.05933 7503 ft 122 kts 98°
2026-04-13 19:00 30.09598 -84.05284 7495 ft 124 kts 98°
2026-04-13 19:00 30.09498 -84.03952 7504 ft 125 kts 99°
2026-04-13 19:00 30.09424 -84.02959 7498 ft 125 kts 97°
2026-04-13 19:00 30.09348 -84.01953 7503 ft 126 kts 98°
2026-04-13 19:01 30.09276 -84.00963 7501 ft 123 kts 97°
2026-04-13 19:01 30.09201 -83.99965 7506 ft 124 kts 98°
2026-04-13 19:01 30.09133 -83.98994 7494 ft 122 kts 99°
2026-04-13 19:01 30.09056 -83.97995 7499 ft 126 kts 98°
2026-04-13 19:02 30.08983 -83.97003 7499 ft 123 kts 97°
2026-04-13 19:02 30.08910 -83.96006 7505 ft 123 kts 97°
2026-04-13 19:02 30.08835 -83.95002 7501 ft 125 kts 99°
2026-04-13 19:02 30.08759 -83.94006 7499 ft 125 kts 98°
2026-04-13 19:03 30.08686 -83.93020 7502 ft 122 kts 99°
2026-04-13 19:03 30.08610 -83.92037 7498 ft 125 kts 98°
2026-04-13 19:03 30.08534 -83.91037 7508 ft 123 kts 97°
2026-04-13 19:03 30.08461 -83.90048 7502 ft 125 kts 97°
2026-04-13 19:04 30.08386 -83.89051 7500 ft 124 kts 97°
2026-04-13 19:04 30.08310 -83.88057 7502 ft 124 kts 97°
2026-04-13 19:04 30.08236 -83.87067 7502 ft 124 kts 97°
2026-04-13 19:04 30.08161 -83.86078 7501 ft 124 kts 97°
2026-04-13 19:05 30.08085 -83.85086 7505 ft 124 kts 97°
2026-04-13 19:05 30.08010 -83.84098 7503 ft 124 kts 97°
2026-04-13 19:05 30.07935 -83.83102 7504 ft 124 kts 97°
2026-04-13 19:05 30.07861 -83.82114 7504 ft 123 kts 97°
2026-04-13 19:06 30.07785 -83.81120 7500 ft 125 kts 97°
2026-04-13 19:06 30.07710 -83.80128 7502 ft 124 kts 97°
2026-04-13 19:06 30.07634 -83.79138 7504 ft 124 kts 97°
2026-04-13 19:06 30.07559 -83.78146 7502 ft 125 kts 97°
2026-04-13 19:07 30.07483 -83.77147 7507 ft 124 kts 97°
2026-04-13 19:07 30.07409 -83.76158 7504 ft 124 kts 97°
2026-04-13 19:07 30.07334 -83.75167 7507 ft 124 kts 97°
2026-04-13 19:07 30.07261 -83.74194 7505 ft 123 kts 98°
2026-04-13 19:08 30.07185 -83.73193 7508 ft 124 kts 97°
2026-04-13 19:08 30.07110 -83.72208 7510 ft 123 kts 98°
2026-04-13 19:08 30.07034 -83.71220 7504 ft 125 kts 97°
2026-04-13 19:08 30.06956 -83.70239 7510 ft 124 kts 97°
2026-04-13 19:09 30.06883 -83.69259 7437 ft 120 kts 96°
2026-04-13 19:09 30.06829 -83.68347 7197 ft 112 kts 97°
2026-04-13 19:09 30.06774 -83.67441 6961 ft 114 kts 97°
2026-04-13 19:09 30.06718 -83.66534 6722 ft 113 kts 97°
2026-04-13 19:10 30.06663 -83.65630 6478 ft 112 kts 97°
2026-04-13 19:10 30.06608 -83.64731 6225 ft 112 kts 96°
2026-04-13 19:10 30.06552 -83.63834 5981 ft 111 kts 95°
2026-04-13 19:10 30.06497 -83.62942 5736 ft 112 kts 95°
2026-04-13 19:11 30.06442 -83.62052 5493 ft 111 kts 95°
2026-04-13 19:11 30.06386 -83.61166 5253 ft 111 kts 94°
2026-04-13 19:11 30.06496 -83.60304 5013 ft 110 kts 64°
2026-04-13 19:11 30.07076 -83.59709 4760 ft 117 kts 25°
2026-04-13 19:12 30.07888 -83.59597 4497 ft 119 kts
2026-04-13 19:12 30.08720 -83.59622 4238 ft 119 kts
2026-04-13 19:12 30.09544 -83.59656 3976 ft 118 kts
2026-04-13 19:12 30.10369 -83.59690 3725 ft 118 kts 359°
2026-04-13 19:13 30.11189 -83.59723 3465 ft 118 kts
2026-04-13 19:13 30.11983 -83.59758 3244 ft 103 kts 360°
2026-04-13 19:13 30.12649 -83.59792 3012 ft 96 kts 359°
2026-04-13 19:13 30.13317 -83.59817 2810 ft 96 kts 358°
2026-04-13 19:14 30.13984 -83.59836 2597 ft 95 kts
2026-04-13 19:14 30.14565 -83.59514 2382 ft 96 kts 50°
2026-04-13 19:14 30.14792 -83.58821 2187 ft 92 kts 96°
2026-04-13 19:14 30.14544 -83.58173 1988 ft 90 kts 140°
2026-04-13 19:15 30.13982 -83.57933 1791 ft 88 kts 182°
2026-04-13 19:15 30.13372 -83.58029 1596 ft 89 kts 189°
2026-04-13 19:15 30.12796 -83.58262 1407 ft 88 kts 206°
2026-04-13 19:15 30.12253 -83.58592 1223 ft 88 kts 208°
2026-04-13 19:16 30.11704 -83.58900 1121 ft 89 kts 195°
2026-04-13 19:16 30.11112 -83.58860 1091 ft 78 kts 169°
2026-04-13 19:16 30.10645 -83.58732 1090 ft 61 kts 170°
2026-04-13 19:16 30.10230 -83.58633 1031 ft 61 kts 172°
2026-04-13 19:17 30.09809 -83.58542 861 ft 62 kts 176°
2026-04-13 19:17 30.09388 -83.58494 679 ft 59 kts 181°
2026-04-13 19:17 30.08987 -83.58481 498 ft 56 kts 189°
2026-04-13 19:17 30.08608 -83.58478 409 ft 53 kts 187°
2026-04-13 19:18 30.08253 -83.58480 318 ft 51 kts 187°
2026-04-13 19:18 30.07918 -83.58483 230 ft 46 kts 187°
2026-04-13 19:18 30.07597 -83.58477 112 ft 46 kts 193°
2026-04-13 19:18 30.07293 -83.58502 88 ft 34 kts 192°
2026-04-13 19:19 30.07160 -83.58571 73 ft 14 kts 192°
2026-04-13 19:19 30.07129 -83.58664 71 ft 14 kts 107°
2026-04-13 19:19 30.07084 -83.58641 59 ft 5 kts 63°
2026-04-13 19:19 30.07105 -83.58632 75 ft 2 kts 73°
2026-04-13 19:20 30.07106 -83.58608 90 ft 10 kts 72°
2026-04-13 19:20 30.07126 -83.58522 83 ft 10 kts 72°
2026-04-13 19:20 30.07157 -83.58461 70 ft 8 kts 72°
2026-04-13 19:20 30.07184 -83.58403 68 ft 8 kts 72°
2026-04-13 19:21 30.07207 -83.58337 72 ft 9 kts 96°
2026-04-13 19:21 30.07213 -83.58269 67 ft 8 kts 95°
2026-04-13 19:21 30.07212 -83.58200 66 ft 9 kts 87°
2026-04-13 19:21 30.07223 -83.58133 65 ft 8 kts 89°
2026-04-13 19:22 30.07233 -83.58066 65 ft 8 kts 95°
2026-04-13 19:22 30.07236 -83.57998 66 ft 9 kts 95°
2026-04-13 19:22 30.07240 -83.57930 66 ft 8 kts 88°
2026-04-13 19:22 30.07258 -83.57868 61 ft 8 kts 58°
2026-04-13 19:23 30.07314 -83.57804 67 ft 13 kts 31°
2026-04-13 19:23 30.07395 -83.57759 63 ft 12 kts 43°
2026-04-13 19:23 30.07464 -83.57698 67 ft 13 kts 33°
2026-04-13 19:23 30.07534 -83.57640 65 ft 13 kts 33°
2026-04-13 19:24 30.07595 -83.57564 64 ft 13 kts 18°
2026-04-13 19:24 30.07653 -83.57511 62 ft 5 kts 18°
2026-04-13 19:24 30.07652 -83.57505 65 ft 3 kts 18°
2026-04-13 19:24 30.07670 -83.57495 65 ft 1 kts
2026-04-13 19:25 30.07673 -83.57493 68 ft 0 kts
2026-04-13 19:25 30.07677 -83.57492 67 ft 0 kts
2026-04-13 19:25 30.07676 -83.57491 58 ft 0 kts
2026-04-13 19:25 30.07680 -83.57492 54 ft 1 kts
2026-04-13 19:26 30.07681 -83.57492 51 ft 0 kts